sat.trackr.live / text

‹ back to catalog

O3B MPOWER F1

NORAD 54755 · 2022-174A

PAYLOAD ACTIVE UNKNOWN

§ Identity

Operator
Country
O3B
Launch date
2022-12-16
Launch site
AFETR
Launch vehicle
Mass (kg)
RCS (m²)

Purposes: comms

External: N2YO · Heavens-Above · Gunter

§ Orbital elements

Epoch: 2026-05-25T01:52:33.238272Z

Period
287.93 min
Inclination
0.0554°
Eccentricity
0.0006202
Mean motion
5.00117054 rev/d
Perigee alt
8,056.9 km
Apogee alt
8,074.8 km
Semi-major
14,444.0 km
B*
0.0000e+0
RAAN
344.3125°
Arg perigee
94.2786°
Mean anomaly
141.2869°
Rev number
6,420

§ Raw data

O3B MPOWER F11 54755U 22174A   26145.07816248 -.00000024  00000+0  00000+0 0  99912 54755   0.0554 344.3125 0006202  94.2786 141.2869  5.00117054 64206

JSON: /api/v1/satellites/54755 · /tle

For live sub-satellite position, see the globe view (requires WebGL).

§ Visibility from observer

Set your observer location to see the next 7 days of passes ≥ 10°. The values pass through the URL so the page stays shareable.

No JS? Fill the form by hand. The geolocation button needs JavaScript.